Tracking 18850 objects as of 22-Nov-2017
HD Live streaming from Space Station
objects crossing your sky now

COSMOS 1617

Track COSMOS 1617 now!
10-day predictions
COSMOS 1617 is classified as:


NORAD ID: 15469
Int'l Code: 1985-003A
Perigee: 1,418.5 km
Apogee: 1,421.3 km
Inclination: 82.6 °
Period: 114.1 minutes
Semi major axis: 7790 km
RCS: 1.0954 m2 (large)
Launch date: January 15, 1985
Source: Commonwealth of Independent States (former USSR) (CIS)
Launch site: PLESETSK MISSILE AND SPACE COMPLEX (PKMTR)
aabbcc
Your satellite tracking list
Your tracking list is empty




NASA's NSSDC Master Catalog

Two Line Element Set (TLE):
1 15469U 85003A   17325.92189942 +.00000002 +00000-0 -48143-4 0  9990
2 15469 082.6095 304.1983 0001818 127.8242 289.4091 12.62465968513561
Source of the keplerian elements: AFSPC